Location: ?astrovice
(49.6513°N, 14.9287°E)
Time: 05:35:13
(UTC+00:00)

SJ-11-03 DEB - Visible Passes

Search period start: 31 October 2020 00:00
Search period end: 10 November 2020 00:00
Orbit: 629 x 750 km, 98.5° (Epoch: 30 October)

Date Brightness Start Highest point End Pass type
(mag) Time Alt. Az. Time Alt. Az. Time Alt. Az.
01 Nov ? 16:35:44 10° N 16:39:19 24° WNW 16:42:49 10° WSW visible
02 Nov ? 17:15:54 10° NNW 17:17:34 12° NW 17:19:13 10° WNW visible
03 Nov ? 16:15:27 10° N 16:19:31 34° WNW 16:23:27 10° SW visible
04 Nov ? 16:55:01 10° NNW 16:57:52 17° WNW 17:00:42 10° W visible
06 Nov ? 16:34:32 10° N 16:38:06 24° WNW 16:41:37 10° WSW visible
07 Nov ? 17:14:38 10° NNW 17:16:22 12° NW 17:18:06 10° WNW visible
08 Nov ? 16:14:15 10° N 16:18:16 35° WNW 16:22:13 10° SW visible
09 Nov ? 16:53:45 10° NNW 16:56:38 17° WNW 16:59:31 10° W visible
